Home > Weather > Naples > Past weeks

Flag for U.S.A. Weather for the Past 2 Weeks in Naples, Florida, U.S.A.

Now
56 °F

Passing clouds.


Feels Like: 54 °F
Forecast: 54 / 61 °F
Wind: 8 mph from North

Location: Naples Municipal

Current Time: Feb 7, 2016 at 5:00:40 AM

Latest Report: Feb 7, 2016 at 3:53 AM


Visibility: 10 mi

Pressure: 30.00 "Hg

Humidity: 70%

Dew point: 46 °F

Location of NaplesLocation

Historic Weather in Naples — Graph

°F

Naples Temperature Yesterday

Maximum temperature yesterday: 71 °F (at 11:53 AM)
Minimum temperature yesterday: 55 °F (at 1:53 AM)
Average temperature yesterday: 59 °F

High & Low Weather Summary for the Past Weeks

 TemperatureHumidityPressure
High83 °F (Feb 2, 1:53 PM)100% (Jan 28, 5:53 PM)30.28 "Hg (Jan 28, 5:53 PM)
Low44 °F (Jan 25, 4:53 AM)32% (Feb 5, 3:53 PM)29.74 "Hg (Jan 28, 3:53 PM)
Average65 °F75%30.07 "Hg
* Reported Jan 23 3:53 AM — Feb 7 3:53 AM, Naples, Weather by CustomWeather, © 2016

Note: Actual official high and low records may vary slightly from our data, if they occured in-between our weather recording intervals... More about our weather records

Advertising

Naples Weather History for the Previous 24 Hours

 ConditionsComfort  
Time TempWeatherWind HumidityBarometerVisibility
3:53 AM
Sun, Feb 7
56 °FPassing clouds.8 mph70%30.00 "Hg10 mi
2:53 AM57 °FMostly cloudy.13 mph78%30.00 "Hg10 mi
1:53 AM57 °FMostly cloudy.12 mph83%30.01 "Hg10 mi
12:53 AM57 °FMostly cloudy.10 mph83%30.03 "Hg10 mi
11:53 PM
Sat, Feb 6
57 °FOvercast.14 mph87%30.04 "Hg10 mi
10:53 PM58 °FMostly cloudy.8 mph90%30.05 "Hg10 mi
10:01 PM58 °FPartly cloudy.9 mph93%30.07 "Hg10 mi
8:53 PM59 °FLow clouds.9 mph93%30.07 "Hg10 mi
7:53 PM58 °FOvercast.6 mph97%30.05 "Hg10 mi
6:53 PM58 °FRain. Fog.8 mph97%30.07 "Hg4 mi
5:53 PM59 °FLight rain. Fog.16 mph96%30.08 "Hg2 mi
3:53 PM62 °FLow clouds.13 mph90%30.05 "Hg9 mi
3:03 PM62 °FMostly cloudy.16 mph90%30.06 "Hg7 mi
2:53 PM62 °FMostly cloudy.10 mph90%30.05 "Hg7 mi
1:53 PM64 °FBroken clouds.13 mph81%30.07 "Hg10 mi
12:53 PM67 °FCloudy.15 mph76%30.10 "Hg10 mi
11:53 AM71 °FOvercast.9 mph68%30.12 "Hg10 mi
10:53 AM67 °FOvercast.8 mph71%30.14 "Hg10 mi
9:53 AM63 °FBroken clouds.8 mph73%30.14 "Hg10 mi
8:53 AM58 °FOvercast.7 mph81%30.14 "Hg10 mi
7:53 AM56 °FPartly sunny.6 mph81%30.13 "Hg10 mi
6:53 AM55 °FPassing clouds.8 mph83%30.12 "Hg10 mi
5:53 AM55 °FMostly cloudy.5 mph80%30.13 "Hg10 mi
Weather by CustomWeather, © 2016

See weather overviewHow to use our weather pages